Location: Aldenham
(51.6667°N, 0.3500°W)
Time: 07:03:30
(UTC+00:00)

Altair - Pass Details

Date: 24 February 2026
Orbit: 1502 x 1682 km, 47.2° (Epoch: 9 March)

Event Time Altitude Azimuth Distance (km) Brightness Sun altitude
Rises 04:32:26 0° 247° (WSW) 4,631 - -23.1°
Reaches altitude 10° 04:35:28 10° 244° (WSW) 3,654 - -22.7°
Exits shadow 04:39:40 31° 235° (SW) 2,411 8.0 -22.0°
Maximum altitude 04:44:28 63° 166° (SSE) 1,674 7.6 -21.3°
Drops below altitude 10° 04:53:43 10° 89° (E) 3,750 10.7 -19.9°
Sets 04:56:52 0° 86° (E) 4,758 11.7 -19.4°
